This is the latest recevied weather packets stored in our database for station/object OE6PLD-13. If no packets are shown the sender has not sent any weather packets the latest 10 day(s).
| Time | Temp. | Humidity | Pressure | Rain* | Wind** | Luminosity | Snow |
|---|---|---|---|---|---|---|---|
| 1777474874 | 13.89° C | 44% | 1012.3 hPa | 0.76 mm | - | 156 W/m² | - |
| 1777474691 | 13.89° C | 44% | 1012.2 hPa | 0.76 mm | - | 158 W/m² | - |
| 1777474507 | 13.33° C | 44% | 1012.4 hPa | 0.76 mm | - | 162 W/m² | - |
| 1777474324 | 13.33° C | 46% | 1012.4 hPa | 0.76 mm | - | 166 W/m² | - |
| 1777474141 | 13.33° C | 46% | 1012.6 hPa | 0.76 mm | - | 163 W/m² | - |
| 1777473957 | 13.33° C | 46% | 1012.4 hPa | 0.76 mm | - | 166 W/m² | - |
| 1777473774 | 13.33° C | 45% | 1012.5 hPa | 0.76 mm | - | 182 W/m² | - |
| 1777473591 | 13.33° C | 44% | 1012.5 hPa | 0.76 mm | - | 183 W/m² | - |
| 1777473408 | 13.33° C | 45% | 1012.6 hPa | 0.76 mm | - | 184 W/m² | - |
| 1777473224 | 13.33° C | 45% | 1012.7 hPa | 0.76 mm | - | 183 W/m² | - |
| 1777473041 | 13.33° C | 44% | 1012.6 hPa | 0.76 mm | - | 189 W/m² | - |
| 1777472858 | 13.33° C | 44% | 1012.7 hPa | 0.76 mm | - | 204 W/m² | - |
| 1777472674 | 13.33° C | 44% | 1012.6 hPa | 0.76 mm | - | 210 W/m² | - |
| 1777472491 | 13.33° C | 45% | 1012.5 hPa | 0.76 mm | - | 222 W/m² | - |
| 1777472307 | 13.33° C | 45% | 1012.8 hPa | 0.76 mm | - | 227 W/m² | - |
| 1777472125 | 13.33° C | 45% | 1012.7 hPa | 0.76 mm | - | 221 W/m² | - |
| 1777471941 | 13.33° C | 46% | 1012.5 hPa | 0.76 mm | - | 212 W/m² | - |
| 1777471758 | 13.33° C | 46% | 1012.6 hPa | 0.76 mm | - | 221 W/m² | - |
| 1777471574 | 13.33° C | 46% | 1012.8 hPa | 0.76 mm | - | 226 W/m² | - |
| 1777471391 | 12.78° C | 45% | 1012.7 hPa | 0.76 mm | - | 198 W/m² | - |
| 1777471208 | 12.78° C | 45% | 1012.7 hPa | 0.76 mm | - | 192 W/m² | - |
| 1777471024 | 13.33° C | 44% | 1012.8 hPa | 0.76 mm | - | 187 W/m² | - |
| 1777470841 | 13.89° C | 44% | 1012.7 hPa | 0.76 mm | - | 205 W/m² | - |
| 1777470657 | 13.89° C | 45% | 1012.7 hPa | 0.76 mm | - | 192 W/m² | - |
| 1777470474 | 13.89° C | 44% | 1012.6 hPa | 0.76 mm | - | 178 W/m² | - |
* Rain latest hour (hover to see other rain measurements)
** Current wind speed in m/s (hover to see current wind gust speed)